Tracking 29892 objects as of 21-Nov-2024
HD Live streaming from Space Station
objects crossing your sky now

STARLINK-30799

Track STARLINK-30799 now!
10-day predictions
STARLINK-30799 is classified as:


NORAD ID: 58121
Int'l Code: 2023-162D
Perigee: 565.6 km
Apogee: 566.8 km
Inclination: 43.0 °
Period: 95.8 minutes
Semi major axis: 6937 km
RCS: Unknown
Launch date: October 22, 2023
Source: United States (US)
Launch site: AIR FORCE EASTERN TEST RANGE (AFETR)
Your satellite tracking list
Your tracking list is empty




NASA's NSSDC Master Catalog

Two Line Element Set (TLE):
1 58121U 23162D   24325.94738102  .00000525  00000-0  53912-4 0  9997
2 58121  43.0061 187.5368 0000873 276.5633  83.5110 15.02536655 59810
Source of the keplerian elements: AFSPC